TimeMDT,TemperatureF,Dew PointF,Humidity,Sea Level PressureIn,VisibilityMPH,Wind Direction,Wind SpeedMPH,Gust SpeedMPH,PrecipitationIn,Events,Conditions,WindDirDegrees,DateUTC
12:53 AM,37.0,28.9,73,30.20,10.0,NW,25.3,35.7,N/A,,Overcast,310,2013-10-15 06:53:00
1:53 AM,37.0,30.0,76,30.24,10.0,NW,24.2,31.1,N/A,,Overcast,310,2013-10-15 07:53:00
2:53 AM,37.0,28.0,70,30.23,10.0,NW,21.9,38.0,N/A,,Overcast,310,2013-10-15 08:53:00
3:53 AM,37.0,30.0,76,30.25,10.0,NW,19.6,32.2,N/A,,Overcast,310,2013-10-15 09:53:00
4:53 AM,37.0,28.9,73,30.26,10.0,NW,19.6,32.2,N/A,,Overcast,310,2013-10-15 10:53:00
5:53 AM,36.0,28.0,73,30.27,10.0,NW,24.2,36.8,N/A,,Overcast,320,2013-10-15 11:53:00
6:53 AM,36.0,28.0,73,30.28,10.0,NW,18.4,26.5,N/A,,Overcast,310,2013-10-15 12:53:00
7:21 AM,35.6,28.4,75,30.24,10.0,NW,20.7,27.6,N/A,,Overcast,310,2013-10-15 13:21:00
7:53 AM,37.0,28.9,73,30.30,10.0,NW,20.7,26.5,N/A,,Overcast,310,2013-10-15 13:53:00
8:30 AM,37.4,28.4,70,30.26,10.0,NW,24.2,31.1,N/A,,Scattered Clouds,310,2013-10-15 14:30:00
8:53 AM,37.9,28.9,70,30.31,10.0,NW,21.9,32.2,N/A,,Scattered Clouds,320,2013-10-15 14:53:00
9:06 AM,37.4,28.4,70,30.28,10.0,NW,23.0,34.5,N/A,,Mostly Cloudy,320,2013-10-15 15:06:00
9:30 AM,39.2,30.2,70,30.28,10.0,NW,20.7,31.1,N/A,,Scattered Clouds,310,2013-10-15 15:30:00
9:53 AM,41.0,30.0,65,30.31,10.0,NW,23.0,31.1,N/A,,Mostly Cloudy,310,2013-10-15 15:53:00
10:53 AM,41.0,28.9,62,30.31,10.0,NW,20.7,31.1,N/A,,Overcast,320,2013-10-15 16:53:00
11:53 AM,42.1,28.9,60,30.31,10.0,NW,20.7,28.8,N/A,,Overcast,320,2013-10-15 17:53:00
12:53 PM,41.0,28.0,60,30.31,10.0,NNW,19.6,25.3,N/A,,Overcast,330,2013-10-15 18:53:00
1:53 PM,41.0,28.9,62,30.29,10.0,NNW,19.6,26.5,N/A,,Overcast,330,2013-10-15 19:53:00
2:53 PM,41.0,28.9,62,30.27,10.0,NW,19.6,24.2,N/A,,Overcast,320,2013-10-15 20:53:00
3:53 PM,41.0,28.9,62,30.27,10.0,NNW,16.1,-,N/A,,Overcast,330,2013-10-15 21:53:00
4:53 PM,41.0,30.0,65,30.26,10.0,NNW,11.5,-,N/A,,Overcast,330,2013-10-15 22:53:00
5:53 PM,39.9,30.0,68,30.26,10.0,NNW,8.1,-,N/A,,Overcast,340,2013-10-15 23:53:00
6:53 PM,39.9,30.9,70,30.27,10.0,NNW,6.9,-,N/A,,Overcast,330,2013-10-16 00:53:00
7:53 PM,39.0,30.9,73,30.27,10.0,NW,5.8,-,N/A,,Overcast,320,2013-10-16 01:53:00
8:53 PM,37.0,30.9,79,30.26,10.0,NW,4.6,-,N/A,,Mostly Cloudy,310,2013-10-16 02:53:00
9:53 PM,35.1,32.0,89,30.25,10.0,North,25.3,97.8,N/A,,Scattered Clouds,360,2013-10-16 03:53:00
10:00 PM,33.8,30.2,87,30.21,10.0,WSW,12.7,97.8,N/A,,Squalls,240,2013-10-16 04:00:00
10:53 PM,36.0,30.9,82,30.23,10.0,West,5.8,-,N/A,,Overcast,270,2013-10-16 04:53:00
11:53 PM,35.1,32.0,89,30.22,10.0,NW,3.5,-,N/A,,Mostly Cloudy,310,2013-10-16 05:53:00